NB8U EFHK-ESSA

Flight info

Callsign NB8U
Flight time N/A
Altitude 28000
Route KUVEM DCT RUNGA N872 XILAN
Aircraft SF50/L-SDE2E3FGHIJ3J4J5M1RWXYZ/LB1

Departure

Time 2026-04-20 19:32
Airport Helsinki Vantaa Airport (EFHK)

Arrival

Time N/A
Airport Stockholm-Arlanda Airport (ESSA)
Time Latitude Longitude Altitude Speed Heading
2026-04-20 19:17 60.31099 24.97840 178 ft 0 kts 333°
2026-04-20 19:24 60.31102 24.97838 178 ft 1 kts 332°
2026-04-20 19:24 60.31108 24.97832 178 ft 3 kts 340°
2026-04-20 19:24 60.31173 24.97903 178 ft 13 kts 56°
2026-04-20 19:24 60.31256 24.97931 178 ft 16 kts 336°
2026-04-20 19:25 60.31386 24.97800 179 ft 25 kts 332°
2026-04-20 19:25 60.31572 24.97607 183 ft 34 kts 333°
2026-04-20 19:25 60.31736 24.97439 185 ft 13 kts 332°
2026-04-20 19:25 60.31801 24.97370 185 ft 7 kts 335°
2026-04-20 19:26 60.31840 24.97331 185 ft 5 kts 333°
2026-04-20 19:26 60.31898 24.97269 182 ft 19 kts 329°
2026-04-20 19:26 60.31994 24.97172 178 ft 19 kts 334°
2026-04-20 19:26 60.32106 24.97055 174 ft 16 kts 335°
2026-04-20 19:27 60.32205 24.96955 172 ft 15 kts 332°
2026-04-20 19:27 60.32273 24.96883 172 ft 10 kts 334°
2026-04-20 19:27 60.32292 24.96764 172 ft 14 kts 231°
2026-04-20 19:27 60.32198 24.96554 177 ft 26 kts 227°
2026-04-20 19:28 60.32043 24.96213 180 ft 40 kts 227°
2026-04-20 19:28 60.31864 24.95819 172 ft 32 kts 227°
2026-04-20 19:28 60.31737 24.95538 172 ft 23 kts 228°
2026-04-20 19:28 60.31612 24.95260 176 ft 28 kts 227°
2026-04-20 19:29 60.31450 24.94908 168 ft 41 kts 227°
2026-04-20 19:29 60.31279 24.94533 158 ft 30 kts 226°
2026-04-20 19:29 60.31186 24.94327 159 ft 15 kts 227°
2026-04-20 19:29 60.31097 24.94128 159 ft 16 kts 226°
2026-04-20 19:30 60.31036 24.93956 160 ft 10 kts 262°
2026-04-20 19:30 60.31047 24.93835 157 ft 9 kts 298°
2026-04-20 19:30 60.31106 24.93716 156 ft 13 kts 321°
2026-04-20 19:30 60.31162 24.93708 155 ft 6 kts 51°
2026-04-20 19:31 60.31167 24.93719 154 ft 0 kts 48°
2026-04-20 19:31 60.31174 24.93736 154 ft 16 kts 48°
2026-04-20 19:32 60.31459 24.94364 163 ft 99 kts 49°
2026-04-20 19:32 60.32052 24.95643 283 ft 139 kts 52°
2026-04-20 19:32 60.32686 24.97089 893 ft 142 kts 54°
2026-04-20 19:32 60.33355 24.98745 1513 ft 168 kts 55°
2026-04-20 19:33 60.34175 25.00573 2288 ft 188 kts 45°
2026-04-20 19:33 60.35122 25.02477 3117 ft 200 kts 51°
2026-04-20 19:33 60.36046 25.04546 3973 ft 202 kts 47°
2026-04-20 19:33 60.37006 25.06601 4832 ft 204 kts 50°
2026-04-20 19:34 60.37960 25.08747 5707 ft 207 kts 48°
2026-04-20 19:34 60.38932 25.10863 6511 ft 211 kts 46°
2026-04-20 19:34 60.40193 25.12343 7214 ft 217 kts 10°
2026-04-20 19:34 60.41677 25.12719 7927 ft 220 kts
2026-04-20 19:35 60.43179 25.12960 8625 ft 221 kts 357°
2026-04-20 19:35 60.44712 25.12958 9333 ft 222 kts 359°
2026-04-20 19:35 60.46250 25.13045 10036 ft 223 kts 357°
2026-04-20 19:35 60.47773 25.12854 10728 ft 221 kts 340°
2026-04-20 19:36 60.48859 25.10957 11429 ft 211 kts 289°
2026-04-20 19:36 60.48813 25.08111 12151 ft 208 kts 248°
2026-04-20 19:36 60.48216 25.05481 12858 ft 208 kts 248°
2026-04-20 19:36 60.47646 25.02794 13563 ft 208 kts 244°
2026-04-20 19:37 60.46996 25.00232 14259 ft 207 kts 243°
2026-04-20 19:37 60.46356 24.97634 14964 ft 205 kts 243°
2026-04-20 19:37 60.45739 24.95087 15658 ft 202 kts 250°
2026-04-20 19:37 60.45437 24.92345 16358 ft 199 kts 256°
2026-04-20 19:38 60.45091 24.89710 17046 ft 196 kts 255°
2026-04-20 19:38 60.44788 24.87047 17749 ft 191 kts 256°
2026-04-20 19:38 60.44487 24.84499 18439 ft 186 kts 256°
2026-04-20 19:38 60.44202 24.82010 19131 ft 180 kts 256°
2026-04-20 19:39 60.43923 24.79592 19739 ft 178 kts 256°
2026-04-20 19:39 60.43639 24.77123 20169 ft 184 kts 256°
2026-04-20 19:39 60.43346 24.74587 20611 ft 189 kts 257°
2026-04-20 19:39 60.43044 24.71943 21001 ft 196 kts 257°
2026-04-20 19:40 60.42730 24.69224 21379 ft 203 kts 257°
2026-04-20 19:40 60.42403 24.66391 21761 ft 209 kts 257°
2026-04-20 19:40 60.42072 24.63514 22137 ft 214 kts 257°
2026-04-20 19:40 60.41734 24.60598 22510 ft 217 kts 257°
2026-04-20 19:41 60.41383 24.57578 22890 ft 221 kts 257°
2026-04-20 19:41 60.41031 24.54543 23265 ft 223 kts 257°
2026-04-20 19:41 60.40675 24.51491 23638 ft 225 kts 257°
2026-04-20 19:41 60.40317 24.48431 24010 ft 226 kts 257°
2026-04-20 19:42 60.39953 24.45310 24386 ft 227 kts 257°
2026-04-20 19:42 60.39592 24.42236 24755 ft 227 kts 257°
2026-04-20 19:42 60.39227 24.39129 25128 ft 227 kts 258°
2026-04-20 19:42 60.38858 24.35992 25503 ft 227 kts 258°
2026-04-20 19:43 60.38493 24.32904 25876 ft 227 kts 257°
2026-04-20 19:43 60.38128 24.29829 26250 ft 226 kts 257°
2026-04-20 19:43 60.37765 24.26762 26624 ft 225 kts 257°
2026-04-20 19:43 60.37400 24.23692 27000 ft 224 kts 257°
2026-04-20 19:44 60.37035 24.20631 27376 ft 223 kts 257°
2026-04-20 19:44 60.36674 24.17597 27690 ft 224 kts 257°
2026-04-20 19:44 60.36308 24.14531 27892 ft 230 kts 257°
2026-04-20 19:44 60.35926 24.11350 28098 ft 234 kts 257°
2026-04-20 19:45 60.35544 24.08155 28261 ft 240 kts 257°
2026-04-20 19:45 60.35139 24.04798 28276 ft 250 kts 257°
2026-04-20 19:45 60.34723 24.01329 28276 ft 260 kts 257°
2026-04-20 19:45 60.34287 23.97729 28275 ft 267 kts 257°
2026-04-20 19:46 60.34137 23.96495 28275 ft 269 kts 257°
2026-04-20 19:47 60.32114 23.79907 28271 ft 277 kts 257°
2026-04-20 19:47 60.31646 23.76098 28271 ft 277 kts 257°
2026-04-20 19:47 60.31184 23.72340 28270 ft 277 kts 257°
2026-04-20 19:47 60.30721 23.68589 28270 ft 277 kts 257°
2026-04-20 19:48 60.30257 23.64845 28269 ft 277 kts 257°
2026-04-20 19:48 60.29779 23.61017 28268 ft 277 kts 257°
2026-04-20 19:48 60.29315 23.57278 28267 ft 277 kts 257°
2026-04-20 19:48 60.28843 23.53498 28265 ft 277 kts 257°
2026-04-20 19:49 60.28375 23.49755 28264 ft 277 kts 257°
2026-04-20 19:49 60.27902 23.45971 28260 ft 277 kts 257°
2026-04-20 19:49 60.27433 23.42241 28257 ft 277 kts 257°
2026-04-20 19:49 60.26957 23.38461 28253 ft 277 kts 257°
2026-04-20 19:50 60.26481 23.34692 28250 ft 277 kts 256°
2026-04-20 19:50 60.26008 23.30968 28250 ft 277 kts 256°
2026-04-20 19:50 60.25531 23.27205 28247 ft 277 kts 256°
2026-04-20 19:50 60.25055 23.23470 28246 ft 277 kts 256°
2026-04-20 19:51 60.24578 23.19724 28246 ft 277 kts 256°
2026-04-20 19:51 60.24094 23.15934 28246 ft 277 kts 256°
2026-04-20 19:51 60.23615 23.12206 28246 ft 277 kts 256°
2026-04-20 19:51 60.23135 23.08462 28245 ft 277 kts 256°
2026-04-20 19:52 60.22648 23.04688 28245 ft 277 kts 256°
2026-04-20 19:52 60.22164 23.00945 28245 ft 277 kts 256°
2026-04-20 19:52 60.21680 22.97195 28245 ft 276 kts 256°
2026-04-20 19:52 60.21204 22.93520 28245 ft 275 kts 256°
2026-04-20 19:53 60.20719 22.89792 28245 ft 274 kts 256°
2026-04-20 19:53 60.20238 22.86106 28244 ft 273 kts 256°
2026-04-20 19:53 60.19756 22.82413 28244 ft 273 kts 256°
2026-04-20 19:53 60.19276 22.78754 28244 ft 272 kts 256°
2026-04-20 19:54 60.18792 22.75077 28244 ft 272 kts 256°
2026-04-20 19:54 60.18303 22.71368 28244 ft 272 kts 256°
2026-04-20 19:54 60.17818 22.67702 28244 ft 272 kts 256°
2026-04-20 19:54 60.17337 22.64069 28243 ft 272 kts 256°
2026-04-20 19:55 60.16846 22.60370 28237 ft 273 kts 256°
2026-04-20 19:55 60.16354 22.56666 28235 ft 277 kts 256°
2026-04-20 19:55 60.15855 22.52929 28235 ft 280 kts 256°
2026-04-20 19:55 60.15347 22.49123 28234 ft 283 kts 256°
2026-04-20 19:56 60.14834 22.45291 28234 ft 284 kts 256°
2026-04-20 19:56 60.14322 22.41483 28237 ft 277 kts 256°
2026-04-20 19:56 60.13823 22.37774 28231 ft 277 kts 256°
2026-04-20 19:56 60.13315 22.34007 28236 ft 280 kts 255°
2026-04-20 19:57 60.12803 22.30241 28238 ft 282 kts 255°
2026-04-20 19:57 60.12287 22.26436 28237 ft 285 kts 255°
2026-04-20 19:57 60.11764 22.22588 28308 ft 284 kts 255°
2026-04-20 19:57 60.11241 22.18756 28345 ft 285 kts 255°
2026-04-20 19:58 60.10717 22.14914 28345 ft 286 kts 255°
2026-04-20 19:58 60.10190 22.11064 28344 ft 288 kts 255°
2026-04-20 19:58 60.09661 22.07210 28344 ft 289 kts 255°
2026-04-20 19:58 60.09127 22.03325 28344 ft 289 kts 255°
2026-04-20 19:59 60.08586 21.99405 28344 ft 290 kts 255°
2026-04-20 19:59 60.08051 21.95526 28344 ft 291 kts 255°
2026-04-20 19:59 60.07507 21.91600 28343 ft 291 kts 255°
2026-04-20 19:59 60.06965 21.87707 28343 ft 291 kts 255°
2026-04-20 20:00 60.06412 21.83747 28343 ft 291 kts 255°
2026-04-20 20:00 60.05869 21.79859 28343 ft 292 kts 255°
2026-04-20 20:00 60.05324 21.75961 28343 ft 292 kts 255°
2026-04-20 20:00 60.04771 21.72019 28343 ft 292 kts 255°
2026-04-20 20:01 60.04223 21.68121 28342 ft 292 kts 255°
2026-04-20 20:01 60.03669 21.64196 28342 ft 292 kts 255°
2026-04-20 20:01 60.03114 21.60270 28342 ft 292 kts 255°
2026-04-20 20:01 60.02563 21.56377 28342 ft 292 kts 255°
2026-04-20 20:02 60.02008 21.52469 28342 ft 292 kts 255°
2026-04-20 20:02 60.01448 21.48539 28342 ft 292 kts 255°
2026-04-20 20:02 60.00886 21.44593 28341 ft 292 kts 255°
2026-04-20 20:02 60.00334 21.40735 28341 ft 292 kts 255°
2026-04-20 20:03 59.99775 21.36838 28341 ft 292 kts 255°
2026-04-20 20:03 59.99216 21.32948 28346 ft 292 kts 254°
2026-04-20 20:03 59.98651 21.29038 28355 ft 292 kts 254°
2026-04-20 20:03 59.98093 21.25165 28364 ft 292 kts 254°
2026-04-20 20:04 59.97527 21.21257 28373 ft 292 kts 254°
2026-04-20 20:04 59.96968 21.17405 28381 ft 292 kts 254°
2026-04-20 20:04 59.96406 21.13538 28390 ft 292 kts 254°
2026-04-20 20:04 59.95842 21.09667 28397 ft 292 kts 254°
2026-04-20 20:05 59.95272 21.05749 28398 ft 292 kts 254°
2026-04-20 20:05 59.94709 21.01894 28397 ft 292 kts 254°
2026-04-20 20:05 59.94139 20.98003 28397 ft 291 kts 253°
2026-04-20 20:05 59.93571 20.94143 28397 ft 291 kts 253°
2026-04-20 20:06 59.93006 20.90309 28396 ft 291 kts 253°
2026-04-20 20:06 59.92431 20.86420 28396 ft 290 kts 253°
2026-04-20 20:06 59.91861 20.82589 28396 ft 290 kts 253°
2026-04-20 20:06 59.91287 20.78733 28395 ft 290 kts 253°
2026-04-20 20:07 59.90710 20.74865 28395 ft 290 kts 253°
2026-04-20 20:07 59.90141 20.71057 28395 ft 290 kts 253°
2026-04-20 20:07 59.89563 20.67193 28398 ft 289 kts 253°
2026-04-20 20:07 59.88992 20.63379 28398 ft 289 kts 253°
2026-04-20 20:08 59.88417 20.59554 28398 ft 289 kts 253°
2026-04-20 20:08 59.87835 20.55693 28397 ft 289 kts 253°
2026-04-20 20:08 59.87258 20.51866 28397 ft 289 kts 253°
2026-04-20 20:08 59.86675 20.48015 28396 ft 290 kts 253°
2026-04-20 20:09 59.86096 20.44196 28127 ft 286 kts 253°
2026-04-20 20:09 59.85555 20.40616 27796 ft 260 kts 253°
2026-04-20 20:09 59.85045 20.37254 27460 ft 250 kts 253°
2026-04-20 20:09 59.84542 20.33963 27133 ft 249 kts 252°
2026-04-20 20:10 59.84037 20.30674 26813 ft 250 kts 252°
2026-04-20 20:10 59.83534 20.27388 26493 ft 250 kts 252°
2026-04-20 20:10 59.83030 20.24103 26119 ft 250 kts 252°
2026-04-20 20:10 59.82521 20.20791 25694 ft 248 kts 252°
2026-04-20 20:11 59.82023 20.17551 25274 ft 246 kts 252°
2026-04-20 20:11 59.81527 20.14339 24854 ft 244 kts 252°
2026-04-20 20:11 59.81033 20.11140 24432 ft 242 kts 251°
2026-04-20 20:11 59.80541 20.07963 24010 ft 241 kts 251°
2026-04-20 20:12 59.80048 20.04792 23585 ft 239 kts 251°
2026-04-20 20:12 59.79560 20.01650 23161 ft 237 kts 251°
2026-04-20 20:12 59.79074 19.98532 22738 ft 236 kts 251°
2026-04-20 20:13 59.78110 19.92365 21890 ft 233 kts 251°
2026-04-20 20:13 59.77637 19.89340 21468 ft 231 kts 251°
2026-04-20 20:13 59.77158 19.86289 20974 ft 230 kts 251°
2026-04-20 20:13 59.76689 19.83294 20477 ft 228 kts 251°
2026-04-20 20:14 59.76222 19.80299 19977 ft 226 kts 251°
2026-04-20 20:14 59.75758 19.77371 19481 ft 224 kts 251°
2026-04-20 20:14 59.75292 19.74426 18979 ft 223 kts 251°
2026-04-20 20:14 59.74857 19.71503 18480 ft 221 kts 253°
2026-04-20 20:15 59.74461 19.68592 17983 ft 220 kts 252°
2026-04-20 20:15 59.74056 19.65700 17483 ft 218 kts 252°
2026-04-20 20:15 59.73660 19.62804 16981 ft 217 kts 252°
2026-04-20 20:15 59.73267 19.59968 16485 ft 215 kts 252°
2026-04-20 20:16 59.72877 19.57137 15986 ft 214 kts 252°
2026-04-20 20:16 59.72487 19.54309 15496 ft 211 kts 252°
2026-04-20 20:16 59.72102 19.51523 15367 ft 207 kts 252°
2026-04-20 20:16 59.71865 19.49816 15369 ft 208 kts 252°